Flag for Germany Weather past 2 weeks in Siegburg, North Rhine-Westphalia, Germany

Now
76 °F

Clear.


Feels Like: 77 °F
Forecast: 73 / 96 °F
Wind: 5 mph from East

Location: Bonn-Hangelar

Current Time: Jul 3, 2015 at 11:29:13 PM

Latest Report: Jul 3, 2015 at 11:00 PM


Visibility: 7 mi

Pressure: 30.14 "Hg

Humidity: 78%

Dew point: 69 °F

Location of SiegburgLocation

Historic Weather in Siegburg — Graph

°F

Siegburg temperature yesterday

Maximum temperature yesterday: 94 °F (at 4:00 PM)
Minimum temperature yesterday: 73 °F (at 11:00 PM)
Average temperature yesterday: 83 °F

Past Weeks' High & Low Weather Summary

 TemperatureHumidityPressure
High94 °F (Jul 2, 4:00 PM)100% (Jun 19, 7:00 AM)30.26 "Hg (Jun 19, 7:00 AM)
Low47 °F (Jun 23, 1:00 AM)32% (Jun 30, 7:00 PM)29.72 "Hg (Jun 22, 8:00 PM)
Average64 °F73%30.08 "Hg
* Reported Jun 18 10:00 PM — Jul 3 10:00 PM, Siegburg, Weather by CustomWeather, © 2015

Note: Actual official high and low records may vary slightly from our data, if they occured in-between our weather recording intervals... More about our weather records

Advertising

Siegburg weather history for previous 24 hours

 ConditionsComfort  
Time TempWeatherWind HumidityBarometerVisibility
10:00 PM
Fri, Jul 3
80 °FPassing clouds.5 mph68%30.14 "Hg9 mi
9:00 PM82 °FScattered clouds.3 mph63%30.14 "Hg7 mi
8:00 PM85 °FSunny.3 mph53%30.14 "Hg11 mi
7:00 PM87 °FSunny.3 mph49%30.14 "Hg11 mi
6:00 PM87 °FSunny.2 mph49%30.15 "Hg13 mi
5:00 PM87 °FSunny.3 mph53%30.16 "Hg12 mi
4:00 PM86 °FPassing clouds.3 mph54%30.18 "Hg10 mi
3:00 PM83 °FPartly sunny.3 mph57%30.19 "Hg11 mi
2:00 PM84 °FPassing clouds.3 mph59%30.21 "Hg9 mi
1:00 PM82 °FSunny.3 mph63%30.22 "Hg12 mi
12:00 PM78 °FSunny.2 mph64%30.23 "Hg16 mi
11:00 AM76 °FSunny.2 mph69%30.24 "Hg15 mi
10:00 AM73 °FSunny.1 mph74%30.25 "Hg15 mi
9:00 AM71 °FSunny.2 mph81%30.25 "Hg9 mi
8:00 AM67 °FFog.1 mph89%30.26 "Hg4 mi
7:00 AM65 °FFog.2 mph94%30.25 "Hg4 mi
6:00 AM65 °FFog.3 mph93%30.24 "Hg4 mi
5:00 AM65 °FFog.2 mph93%30.24 "Hg4 mi
4:00 AM65 °FOvercast.2 mph92%30.23 "Hg6 mi
3:00 AM68 °FOvercast.2 mph86%30.22 "Hg9 mi
2:00 AM68 °FPassing clouds.3 mph84%30.21 "Hg8 mi
1:00 AM71 °FOvercast.5 mph81%30.18 "Hg7 mi
12:00 AM70 °FPassing clouds.2 mph84%30.16 "Hg6 mi
11:00 PM
Thu, Jul 2
73 °FOvercast.3 mph78%30.14 "Hg8 mi
Weather by CustomWeather, © 2015

See weather overviewHow to use our weather pages